Flag for United Kingdom

Past Weather in 58°36'38.0"N, 3°32'38.2"W, United Kingdom — Yesterday and Last 2 Weeks

Currently: 50 °F. Cool. (Weather station: Kirkwall Airport, United Kingdom). See more current weather

Past Weather in 58°36'38.0"N, 3°32'38.2"W — Graph

°F

58°36'38.0"N, 3°32'38.2"W Temperature Yesterday

Maximum temperature yesterday: 55 °F (at 11:50 am)
Minimum temperature yesterday: 46 °F (at 12:50 am)
Average temperature yesterday: 52 °F

High & Low Weather Summary for the Past Weeks

 TemperatureHumidityPressure
High64 °F (Sep 26, 2:20 pm)100% (Sep 14, 7:20 am)30.18 "Hg (Sep 14, 7:20 am)
Low46 °F (Sep 20, 6:50 am)54% (Sep 23, 2:50 pm)29.33 "Hg (Sep 27, 11:20 am)
Average55 °F87%29.80 "Hg
* Reported Sep 13 11:20 pm — Sep 28 11:20 pm, 58°36'38.0"N, 3°32'38.2"W. Weather by CustomWeather, © 2021

Note: Actual official high and low records may vary slightly from our data, if they occured in-between our weather recording intervals... More about our weather records

58°36'38.0"N, 3°32'38.2"W Weather History for the Previous 24 Hours

Scroll right to see more
 ConditionsComfort  
Time TempWeatherWind HumidityBarometerVisibility
11:20 pm
Tue, Sep 28
50 °FCool.6 mph88%29.71 "HgN/A
10:50 pm50 °FPassing clouds.6 mph88%29.71 "HgN/A
10:20 pm50 °FPassing clouds.5 mph94%29.71 "HgN/A
9:50 pm52 °FPassing clouds.7 mph88%29.71 "HgN/A
9:20 pm52 °FPassing clouds.6 mph88%29.71 "HgN/A
8:50 pm52 °FPassing clouds.9 mph88%29.71 "HgN/A
8:20 pm52 °FCool.10 mph88%29.71 "HgN/A
7:50 pm52 °FCool.12 mph88%29.71 "HgN/A
7:20 pm52 °FCool.14 mph88%29.71 "HgN/A
6:50 pm52 °FPassing clouds.12 mph88%29.68 "HgN/A
6:20 pm54 °FPassing clouds.14 mph77%29.68 "HgN/A
5:50 pm54 °FPassing clouds.15 mph77%29.68 "HgN/A
5:20 pm54 °FPassing clouds.17 mph72%29.68 "HgN/A
4:50 pm55 °FPassing clouds.18 mph72%29.68 "HgN/A
4:20 pm54 °FPassing clouds.16 mph77%29.71 "HgN/A
3:50 pm55 °FPassing clouds.16 mph72%29.71 "HgN/A
3:20 pm55 °FPassing clouds.17 mph67%29.68 "HgN/A
2:50 pm55 °FPassing clouds.20 mph72%29.68 "HgN/A
2:20 pm55 °FPassing clouds.18 mph72%29.71 "HgN/A
1:50 pm55 °FPassing clouds.21 mph63%29.71 "HgN/A
1:20 pm55 °FPassing clouds.17 mph67%29.71 "HgN/A
12:50 pm55 °FScattered clouds.18 mph67%29.71 "HgN/A
12:20 pm55 °FPassing clouds.21 mph63%29.68 "HgN/A
11:50 am55 °FPassing clouds.20 mph67%29.68 "HgN/A
11:20 am54 °FPassing clouds.18 mph72%29.68 "HgN/A
10:50 am54 °FPassing clouds.18 mph72%29.68 "HgN/A
10:20 am52 °FPassing clouds.15 mph77%29.68 "HgN/A
9:50 am54 °FPassing clouds.16 mph72%29.68 "HgN/A
9:20 am52 °FPassing clouds.15 mph77%29.68 "HgN/A
8:50 am50 °FPassing clouds.13 mph82%29.68 "HgN/A
8:20 am50 °FPassing clouds.12 mph82%29.68 "HgN/A
7:50 am50 °FScattered clouds.13 mph82%29.65 "HgN/A
7:20 am48 °FScattered clouds.12 mph87%29.65 "HgN/A
6:50 am50 °FScattered showers. Passing clouds.13 mph82%29.65 "HgN/A
6:20 am50 °FSprinkles. Passing clouds.16 mph82%29.65 "HgN/A
5:50 am50 °FPartly cloudy.13 mph82%29.65 "HgN/A
5:20 am50 °FPassing clouds.14 mph82%29.65 "HgN/A
4:50 am50 °FPassing clouds.15 mph82%29.62 "HgN/A
4:20 am50 °FPassing clouds.15 mph82%29.62 "HgN/A
3:50 am50 °FPassing clouds.16 mph82%29.62 "HgN/A
3:20 am50 °FCool.13 mph82%29.65 "HgN/A
2:50 am50 °FCool.14 mph82%29.65 "HgN/A
2:20 am50 °FCool.13 mph82%29.65 "HgN/A
1:50 am48 °FCool.10 mph82%29.62 "HgN/A
1:20 am48 °FCool.12 mph87%29.62 "HgN/A
12:50 am46 °FCool.14 mph87%29.62 "HgN/A
12:20 am48 °FCool.14 mph82%29.59 "HgN/A
Weather by CustomWeather, © 2021

See weather overview